Weather History for KCRP - February, 2014

Change the Weather History Date:

Friday, February 28, 2014

  Actual Average Record
Temperature  
Mean Temperature 66 °F 63 °F  
Max Temperature 88 °F 73 °F 94 °F (1940)
Min Temperature 43 °F 53 °F 30 °F (1890)
Degree Days  
Heating Degree Days 0 4  
Month to date heating degree days 232 174  
Since 1 July heating degree days 998 800  
Cooling Degree Days 1 2  
Month to date cooling degree days 75 46  
Year to date cooling degree days 77 76  
Growing Degree Days 20 (Base 50)    
Moisture  
Dew Point 55 °F    
Average Humidity 66    
Maximum Humidity 93    
Minimum Humidity 39    
Precipitation  
Precipitation 0.00 in 0.09 in 2.11 in (1990)
Month to date precipitation 0.24 1.93  
Year to date precipitation 0.91 3.47  
Snow  
Snow 0.00 in - - ()
Month to date snowfall 0.0  
Since 1 July snowfall T  
Snow Depth 0.00 in    
Sea Level Pressure  
Sea Level Pressure 29.88 in    
Wind  
Wind Speed 12 mph (South)    
Max Wind Speed 23 mph    
Max Gust Speed 32 mph    
Visibility 10 miles    
Events      
T = Trace of Precipitation, MM = Missing Value Source: NWS Daily Summary

Daily Weather History Graph

Daily Weather History Graph

Search for Another Location

Airport or City:

Trip Planner

Search our weather history database for the weather conditions in past years. The results will help you decide how hot, cold, wet, or windy it might be!

Date:

Astronomy

Feb. 28, 2014 Rise Set
Actual Time 6:55 AM CST 6:29 PM CST
Civil Twilight 6:31 AM CST 6:53 PM CST
Nautical Twilight 6:04 AM CST 7:20 PM CST
Astronomical Twilight 5:37 AM CST 7:47 PM CST
Moon 6:10 AM CST (2/28) 6:06 PM CST (2/28)
Length of Visible Light 12h 21m
Length of Day
11h 34m
Waning Crescent, 1% of the Moon is Illuminated
Feb 28
Waning Crescent
Mar 1
New
Mar 8
First Quarter
Mar 16
Full
Mar 23
Last Quarter

Hourly Weather History & Observations

Time (CST) Temp. Windchill Dew Point Humidity Pressure Visibility Wind Dir Wind Speed Gust Speed Precip Events Conditions
12:51 AM 45.0 °F 42.6 °F 41.0 °F 86% 29.96 in 10.0 mi SE 4.6 mph - N/A   Clear
1:51 AM 46.0 °F 43.9 °F 43.0 °F 89% 29.94 in 10.0 mi SE 4.6 mph - N/A   Clear
2:51 AM 45.0 °F 41.8 °F 42.1 °F 90% 29.91 in 10.0 mi SE 5.8 mph - N/A   Mostly Cloudy
2:58 AM 46.4 °F 42.9 °F 42.8 °F 87% 29.91 in 10.0 mi SSE 6.9 mph - N/A   Mostly Cloudy
3:51 AM 52.0 °F - 48.9 °F 89% 29.89 in 10.0 mi SE 3.5 mph - N/A   Overcast
4:35 AM 51.8 °F - 48.2 °F 88% 29.88 in 10.0 mi SSE 6.9 mph - N/A   Partly Cloudy
4:51 AM 51.1 °F - 48.0 °F 89% 29.87 in 10.0 mi SSE 8.1 mph - N/A   Partly Cloudy
5:34 AM 51.8 °F - 48.2 °F 88% 29.87 in 10.0 mi SSE 8.1 mph - N/A   Mostly Cloudy
5:51 AM 54.0 °F - 51.1 °F 90% 29.86 in 10.0 mi South 9.2 mph - N/A   Overcast
6:11 AM 53.6 °F - 51.8 °F 94% 29.86 in 10.0 mi South 9.2 mph - N/A   Scattered Clouds
6:51 AM 53.1 °F - 50.0 °F 89% 29.86 in 10.0 mi South 9.2 mph - N/A   Partly Cloudy
7:51 AM 55.9 °F - 52.0 °F 87% 29.89 in 9.0 mi WSW 3.5 mph - N/A   Partly Cloudy
8:41 AM 59.0 °F - 53.6 °F 82% 29.92 in 10.0 mi SW 8.1 mph - N/A   Mostly Cloudy
8:51 AM 60.1 °F - 53.1 °F 78% 29.93 in 10.0 mi SW 10.4 mph - N/A   Mostly Cloudy
9:51 AM 64.9 °F - 57.0 °F 75% 29.93 in 10.0 mi South 15.0 mph - N/A   Mostly Cloudy
10:17 AM 66.2 °F - 57.2 °F 73% 29.93 in 10.0 mi South 13.8 mph - N/A   Scattered Clouds
10:51 AM 70.0 °F - 57.9 °F 65% 29.93 in 10.0 mi SSW 16.1 mph 21.9 mph N/A   Scattered Clouds
11:51 AM 77.0 °F - 59.0 °F 54% 29.91 in 10.0 mi South 16.1 mph - N/A   Scattered Clouds
12:51 PM 82.9 °F - 57.9 °F 42% 29.88 in 10.0 mi SW 20.7 mph 24.2 mph N/A   Partly Cloudy
1:51 PM 84.9 °F - 57.9 °F 40% 29.85 in 10.0 mi SSW 10.4 mph 21.9 mph N/A   Partly Cloudy
2:51 PM 88.0 °F - 59.0 °F 37% 29.82 in 10.0 mi South 10.4 mph 18.4 mph N/A   Partly Cloudy
3:51 PM 82.0 °F - 63.0 °F 52% 29.81 in 10.0 mi SSE 15.0 mph 23.0 mph N/A   Partly Cloudy
4:51 PM 79.0 °F - 63.0 °F 58% 29.81 in 10.0 mi SSE 19.6 mph 27.6 mph N/A   Clear
5:51 PM 73.9 °F - 63.0 °F 68% 29.82 in 10.0 mi SSE 12.7 mph 20.7 mph N/A   Partly Cloudy
6:51 PM 70.0 °F - 62.1 °F 76% 29.83 in 10.0 mi SSE 13.8 mph 21.9 mph N/A   Partly Cloudy
7:51 PM 68.0 °F - 62.1 °F 81% 29.85 in 10.0 mi SSE 16.1 mph - N/A   Partly Cloudy
8:51 PM 68.0 °F - 62.1 °F 81% 29.88 in 10.0 mi SSE 15.0 mph 21.9 mph N/A   Partly Cloudy
9:51 PM 68.0 °F - 63.0 °F 84% 29.88 in 10.0 mi South 13.8 mph - N/A   Clear
10:51 PM 66.9 °F - 63.0 °F 87% 29.89 in 10.0 mi South 13.8 mph - N/A   Clear
11:51 PM 66.9 °F - 63.0 °F 87% 29.90 in 10.0 mi South 13.8 mph - N/A   Clear